sat.trackr.live / text

‹ back to catalog

MISR-D 1

NORAD 69908 · 2026-156AR

PAYLOAD ACTIVE UNKNOWN

§ Identity

Operator
Country
US
Launch date
2026-07-07
Launch site
AFWTR
Launch vehicle
Mass (kg)
RCS (m²)

External: N2YO · Heavens-Above · Gunter

§ Orbital elements

Epoch: 2026-09-19T12:56:33.126720Z

Period
96.54 min
Inclination
97.7435°
Eccentricity
0.0004429
Mean motion
14.91652297 rev/d
Perigee alt
589.7 km
Apogee alt
595.9 km
Semi-major
6,970.9 km
B*
1.2891e-4
RAAN
161.7070°
Arg perigee
255.5551°
Mean anomaly
104.5177°
Rev number
1,106

§ Raw data

MISR-D 11 69908U 26156AR  26262.53927230  .00001240  00000+0  12891-3 0  99912 69908  97.7435 161.7070 0004429 255.5551 104.5177 14.91652297 11067

JSON: /api/v1/satellites/69908 · /tle

For live sub-satellite position, see the globe view (requires WebGL).

§ Visibility from observer

Set your observer location to see the next 7 days of passes ≥ 10°. The values pass through the URL so the page stays shareable.

No JS? Fill the form by hand. The geolocation button needs JavaScript.